Location: *
(50.8512°N, 5.6907°E)
Time: 12:53:55
(UTC+00:00)

ADEOS Rocket - Pass Details

Date: 09 April 2020
Orbit: 858 x 1307 km, 98.7° (Epoch: 27 May)

Event Time Altitude Azimuth Distance (km) Brightness Sun altitude
Rises 18:59:09 0° 12° (NNE) 3,906 6.3 -6.2°
Reaches altitude 10° 19:01:52 10° 9° (N) 2,880 5.6 -6.6°
Maximum altitude 19:08:04 53° 294° (WNW) 1,182 4.0 -7.5°
Drops below altitude 10° 19:13:41 10° 219° (SW) 2,602 5.5 -8.3°
Sets 19:16:02 0° 215° (SW) 3,501 6.1 -8.6°
